sat.trackr.live / text

‹ back to catalog

STARLINK-34491

NORAD 64780 · 2025-147AB

PAYLOAD ACTIVE UNKNOWN

§ Identity

Operator
Country
US
Launch date
2025-07-08
Launch site
AFETR
Launch vehicle
Mass (kg)
RCS (m²)

Purposes: comms

External: N2YO · Heavens-Above · Gunter

§ Orbital elements

Epoch: 2026-09-20T21:50:20.738400Z

Period
93.85 min
Inclination
53.1585°
Eccentricity
0.0001355
Mean motion
15.34391027 rev/d
Perigee alt
461.8 km
Apogee alt
463.7 km
Semi-major
6,840.9 km
B*
5.2696e-4
RAAN
51.5134°
Arg perigee
97.8263°
Mean anomaly
262.2894°
Rev number
6,870

§ Raw data

STARLINK-344911 64780U 25147AB  26263.90996225  .00017465  00000+0  52696-3 0  99982 64780  53.1585  51.5134 0001355  97.8263 262.2894 15.34391027 68701

JSON: /api/v1/satellites/64780 · /tle

For live sub-satellite position, see the globe view (requires WebGL).

§ Visibility from observer

Set your observer location to see the next 7 days of passes ≥ 10°. The values pass through the URL so the page stays shareable.

No JS? Fill the form by hand. The geolocation button needs JavaScript.